Location: Beneden-Haastrecht
(52.0012°N, 4.7557°E)
Time: 01:56:59
(UTC+00:00)

SAR-Lupe-4 - Pass Details

Date: 24 October 2020
Orbit: 481 x 484 km, 98.2° (Epoch: 22 November)

Event Time Altitude Azimuth Distance (km) Brightness Sun altitude
Rises 17:33:30 0° 17° (NNE) 2,559 7.0 -10.8°
Reaches altitude 10° 17:35:36 10° 21° (NNE) 1,674 6.0 -11.1°
Maximum altitude 17:39:10 62° 103° (ESE) 548 3.5 -11.7°
Drops below altitude 10° 17:42:42 10° 185° (S) 1,658 6.4 -12.2°
Sets 17:44:46 0° 188° (S) 2,533 7.4 -12.5°
